Location: Mesa
(33.4220°N, 111.8220°W)
Time: 16:56:55
(UTC-07:00)

ISS - Pass Details

Date: 26 November 2019
Orbit: 411 x 421 km, 51.6° (Epoch: 08 December)

Event Time Altitude Azimuth Distance (km) Brightness Sun altitude
Rises 18:06:51 0° 279° (W) 2,347 1.3 -9.9°
Reaches altitude 10° 18:10:46 10° 325° (NW) 1,492 -0.7 -10.6°
Maximum altitude 18:11:14 10° 333° (NNW) 1,479 -0.9 -10.7°
Drops below altitude 10° 18:11:43 10° 342° (NNW) 1,493 -1.0 -10.8°
Enters shadow 18:14:13 - 16° (NNE) 1,935 -0.7 -11.3°
